Wind_Speed
29 29 29 28 28 28 28 26 26 25 25 25 24 24 24 23 23 23 23 23 23 23 24 24 23 23 23 23 23 24 24 24 25 25 25 26 26 26 26 26 26 26 26 26 26 26 26 25 25 25 25 24 24 24 24 24 24 24 24 24 25 25 25 25 26 26 26 26 26 26 27 27 27 27 27 26 26 26 26 26 26 26 27 27 27 27
28 29 28 28 28 28 28 27 26 26 26 25 25 24 23 23 23 23 22 22 22 23 23 23 23 23 23 23 23 24 24 24 25 25 25 26 26 26 26 26 26 26 26 26 26 26 26 26 25 25 25 25 24 24 24 24 24 24 25 25 25 25 26 26 26 26 26 26 26 27 27 27 27 27 27 26 26 26 26 27 27 27 27 27 28 27
27 27 27 28 27 27 27 27 27 26 26 26 25 24 23 22 22 22 21 21 21 21 22 22 23 23 23 23 23 24 24 24 25 25 25 25 25 25 25 25 25 25 26 26 26 26 26 26 25 25 25 25 25 24 24 25 25 25 25 25 25 26 26 26 26 26 26 26 26 26 27 27 27 27 27 27 27 27 27 27 27 27 28 28 28 28
26 26 26 27 27 27 27 27 27 27 27 27 26 24 23 22 21 21 20 20 20 21 21 22 22 23 23 23 23 23 24 24 24 24 25 25 25 25 25 25 25 25 25 25 25 25 25 25 25 25 24 24 24 25 25 25 25 25 25 25 26 26 26 26 26 26 26 26 26 26 26 26 26 26 27 27 27 27 27 27 28 28 28 28 28 29
25 25 26 26 26 26 27 26 26 27 27 27 26 25 23 22 21 20 20 20 20 20 21 21 21 22 22 22 23 23 23 23 23 24 24 24 24 24 24 24 24 24 24 25 25 25 24 24 24 24 24 24 24 25 25 25 25 25 25 25 25 26 26 26 26 26 26 26 26 26 26 26 26 26 27 27 27 27 27 28 28 28 28 29 29 29
25 25 25 26 26 26 27 26 26 26 26 26 26 25 23 22 21 20 20 19 19 19 20 20 20 20 21 21 22 22 22 22 22 22 22 22 22 22 23 23 23 23 23 23 23 23 23 23 23 23 24 24 24 24 24 25 25 25 25 25 25 25 25 25 25 25 25 25 25 25 26 26 26 26 27 27 27 27 28 28 28 28 29 29 29 29
25 25 25 25 26 27 27 26 25 25 25 25 25 24 23 23 22 21 20 20 19 19 19 19 19 20 20 20 21 21 21 21 20 20 21 21 21 21 21 21 22 22 22 22 22 22 22 22 23 23 24 24 24 24 24 24 24 24 24 24 24 24 24 24 24 24 25 25 25 25 25 26 26 26 27 27 27 27 28 28 28 29 29 29 29 29
25 25 25 25 25 26 26 25 24 23 23 23 23 23 23 22 21 21 21 20 20 19 19 19 19 19 19 19 19 19 19 19 18 18 19 19 19 19 20 20 20 20 20 21 21 21 21 22 22 23 23 23 23 23 23 23 23 23 23 23 23 23 23 24 24 24 24 24 24 25 25 26 26 26 27 27 27 28 28 28 28 29 29 29 29 28
24 25 25 25 24 23 23 23 23 22 22 22 22 22 22 21 20 20 20 20 20 20 20 19 19 19 19 19 18 18 17 17 17 17 17 17 18 18 19 19 19 19 19 20 20 20 21 21 22 22 22 21 21 21 21 21 22 22 22 22 22 22 23 23 23 23 24 24 24 25 25 26 26 26 27 27 27 28 28 28 28 28 28 28 28 27
24 24 24 23 23 22 21 21 22 21 21 21 21 21 20 19 18 19 20 21 21 21 21 20 20 19 19 18 17 17 16 16 16 16 16 17 17 18 18 18 18 18 19 19 19 19 20 20 20 20 20 20 20 20 20 20 20 21 21 21 21 22 22 23 23 23 24 24 25 25 26 26 26 27 27 27 27 27 27 27 27 27 27 27 27 27
22 22 22 21 21 21 21 20 20 21 21 20 20 19 17 16 16 18 21 23 23 23 22 21 20 19 19 19 18 17 16 16 16 16 16 16 16 17 17 18 18 18 18 18 18 18 18 18 18 18 18 19 19 19 19 19 20 20 20 20 21 21 22 22 23 24 24 24 25 25 26 26 26 26 26 26 26 26 26 26 26 26 26 27 27 27
19 19 20 20 20 20 20 20 20 20 19 18 17 15 14 14 16 19 21 23 24 24 23 22 21 20 20 20 20 19 18 17 16 16 16 16 16 17 17 17 17 17 17 17 17 17 17 17 17 17 17 17 17 18 18 18 19 19 19 20 21 21 22 23 23 24 24 24 25 25 25 25 25 25 25 25 25 25 25 26 26 26 26 27 27 27
18 18 18 19 19 19 18 18 18 18 17 15 14 13 13 15 18 20 22 24 25 25 24 23 22 22 21 20 20 19 19 18 17 17 17 17 18 18 18 18 18 17 17 16 16 16 16 16 16 15 16 16 16 17 17 17 18 18 19 20 20 21 22 22 23 23 24 24 24 24 24 24 24 24 24 24 24 25 25 26 26 27 27 27 27 28
17 17 17 18 18 17 16 16 16 16 15 15 14 14 16 18 20 22 23 24 25 24 24 24 24 23 22 20 19 19 19 19 19 19 19 19 19 20 20 20 20 19 18 17 17 16 16 15 15 15 15 15 15 16 16 17 17 18 19 19 20 21 22 22 22 23 23 23 23 23 23 23 23 23 23 24 24 25 25 26 26 27 27 27 28 28
16 16 16 17 17 16 16 16 16 16 16 15 15 15 18 20 21 22 22 23 24 24 24 24 25 24 21 19 18 19 19 20 20 21 21 21 22 22 22 22 21 21 19 18 18 17 16 15 15 15 15 14 15 15 15 16 17 18 18 19 20 21 21 21 21 22 22 22 22 22 22 22 23 23 23 24 24 25 25 26 27 27 27 27 28 28
17 17 17 17 17 17 17 16 16 16 16 15 16 17 19 20 21 22 22 23 23 24 24 24 24 24 21 18 17 17 19 20 21 23 24 25 24 24 24 23 23 22 21 20 19 18 17 16 15 15 14 14 15 15 15 16 17 18 18 19 20 20 20 20 20 20 20 21 21 21 22 22 23 23 24 24 25 25 25 26 26 27 27 27 28 28
17 17 18 18 17 17 17 16 15 15 16 17 18 19 19 20 20 21 21 22 22 22 22 22 22 21 21 18 16 15 17 19 22 25 27 28 27 25 25 25 24 24 22 21 20 19 18 17 16 15 15 15 15 15 15 16 17 18 18 19 19 19 19 19 19 19 20 20 21 21 22 23 23 24 24 24 25 25 25 26 26 27 27 27 28 28
18 18 19 19 18 18 17 17 17 17 17 18 19 20 20 19 19 19 19 20 20 20 20 20 20 20 19 19 17 16 17 19 23 27 29 31 29 27 26 25 25 25 24 23 22 21 20 19 18 17 16 15 15 15 16 16 17 17 18 18 18 18 18 18 19 19 20 20 21 22 23 23 24 24 24 24 24 25 25 26 26 26 27 27 28 29
20 20 20 19 19 19 19 19 19 19 19 19 19 19 19 19 19 18 19 19 18 18 19 19 20 20 21 20 20 19 20 21 24 28 31 33 31 29 26 26 26 26 25 25 24 23 22 20 19 18 17 16 16 16 16 16 17 17 18 18 18 18 18 18 19 19 20 21 22 22 23 23 23 23 23 24 24 24 25 25 26 27 27 28 28 29
23 23 22 22 22 22 22 21 21 20 19 20 20 20 20 21 20 19 18 18 17 18 19 19 20 21 22 21 22 22 24 25 28 30 31 33 32 30 27 26 26 26 26 26 25 24 23 22 21 20 19 18 17 17 17 17 17 17 17 18 17 17 18 18 19 20 21 21 22 22 23 23 23 23 23 23 24 24 25 26 26 27 27 28 29 29
27 27 25 24 24 24 24 23 22 21 21 21 22 22 22 21 20 19 18 17 17 18 19 19 20 21 22 24 26 28 28 28 29 30 31 32 32 30 27 26 26 26 27 27 26 25 24 23 23 22 21 20 19 18 18 18 18 18 18 17 17 18 18 19 20 21 21 22 22 22 23 22 22 22 23 23 24 24 25 26 26 27 28 28 29 29
31 31 30 28 27 27 26 26 25 24 24 23 23 22 22 21 20 18 17 17 18 18 19 20 21 23 26 29 31 32 31 29 27 27 29 31 32 30 27 26 26 27 28 28 27 26 25 25 24 23 22 21 20 20 19 19 18 18 18 18 18 18 19 20 20 21 22 22 22 22 22 22 22 23 23 23 24 24 25 26 26 27 28 28 29 29
32 32 31 31 30 30 29 29 28 26 25 23 22 21 20 19 18 18 17 17 17 18 19 20 23 26 29 32 32 32 30 28 26 25 25 27 29 30 28 28 28 28 29 28 27 27 27 27 26 25 24 23 22 21 21 20 19 19 18 18 18 19 20 20 21 22 22 22 22 22 22 22 22 23 23 23 24 24 25 26 26 27 28 28 28 29
30 30 30 29 29 29 28 27 26 24 23 21 20 19 18 18 18 17 17 16 16 16 18 22 25 28 30 32 32 30 28 25 23 22 23 25 28 30 30 29 29 29 29 28 27 28 29 29 28 27 26 25 24 23 22 21 20 20 19 19 19 20 21 21 21 22 22 22 22 22 22 22 22 23 23 23 24 24 25 25 26 27 27 28 28 29
28 28 28 27 27 26 25 24 23 21 19 18 18 19 19 19 18 17 17 16 16 19 22 25 27 29 30 30 29 28 26 22 21 21 23 25 27 29 30 29 29 29 29 29 29 29 30 31 30 28 27 26 25 24 23 22 22 21 21 21 21 22 22 22 22 22 22 22 22 22 22 22 22 23 23 23 24 24 24 25 26 26 27 28 28 29
26 26 26 25 25 24 23 22 20 18 17 18 19 20 20 19 18 17 17 17 19 21 23 25 26 27 28 28 27 26 25 22 20 20 23 25 28 30 31 29 27 27 29 30 31 32 32 33 32 30 28 27 26 25 24 24 23 23 23 23 23 24 23 23 22 22 22 22 22 22 22 22 22 23 23 23 23 24 24 25 25 26 27 28 29 30
25 25 25 24 23 23 22 20 18 15 16 18 19 19 19 19 20 20 21 21 22 22 23 24 25 26 27 26 26 26 26 24 22 22 23 24 27 28 28 26 25 26 28 31 33 34 34 33 32 31 29 28 27 27 26 26 26 26 26 26 26 25 25 24 23 23 23 22 22 22 23 23 23 23 23 23 23 23 24 24 25 26 27 28 29 31
24 24 23 23 22 22 22 20 17 15 16 19 20 21 21 22 23 23 24 25 25 25 24 24 25 25 26 27 28 29 29 28 26 24 22 22 23 24 25 24 24 26 28 31 34 35 34 33 32 31 29 28 28 28 28 28 28 28 28 28 27 27 26 25 25 24 24 24 24 24 24 24 23 23 23 23 23 23 24 24 25 26 27 28 30 31
22 22 22 22 22 22 22 20 18 17 19 23 25 26 26 26 27 27 28 28 27 26 26 26 25 26 27 28 30 32 32 29 26 22 20 20 22 23 24 23 24 26 27 31 34 34 33 32 30 29 28 28 28 29 29 29 30 30 29 29 28 28 27 27 26 26 26 26 26 25 25 25 24 24 23 23 23 23 24 25 25 26 28 29 30 31
21 21 22 22 22 21 21 20 20 21 23 26 27 28 29 29 29 29 29 27 26 26 27 27 27 27 28 29 30 31 29 25 21 19 19 20 22 24 24 23 24 25 26 28 30 31 32 31 29 27 28 29 30 30 30 30 30 30 30 30 29 29 29 28 28 28 28 28 27 27 27 26 25 25 24 24 23 24 24 25 26 27 28 29 30 31
20 20 21 21 21 21 21 21 22 23 24 26 26 27 27 27 27 26 25 24 25 26 28 29 30 29 28 27 27 26 25 22 20 19 20 21 23 24 24 24 25 25 24 23 24 26 29 31 31 30 30 31 32 32 31 31 31 31 31 31 30 30 30 30 30 30 29 29 29 29 28 28 27 26 25 25 24 25 25 25 26 27 28 29 31 31
21 22 22 22 21 22 22 22 23 24 24 25 25 25 24 23 23 22 22 23 24 26 29 31 32 32 30 28 27 27 27 26 24 22 22 22 25 26 25 25 25 26 25 24 23 24 25 30 33 34 33 33 33 33 32 31 31 31 31 31 31 31 31 31 31 31 31 31 31 30 30 29 28 27 26 26 26 26 26 26 27 28 29 30 31 32
23 23 23 22 23 23 23 23 23 23 24 24 23 22 21 21 20 21 22 24 26 28 31 33 34 34 32 30 31 31 31 29 27 25 24 25 26 27 27 26 27 28 28 27 26 25 26 29 33 36 36 35 34 34 33 32 31 31 31 31 31 32 32 32 32 32 32 32 31 31 31 30 29 29 28 28 28 28 28 28 28 28 29 30 31 32
23 22 22 22 24 25 25 25 24 24 24 24 22 22 21 21 22 23 25 26 28 30 33 34 34 33 32 31 31 32 32 30 27 26 25 25 27 28 29 29 29 29 29 28 26 26 27 28 30 33 34 35 35 34 33 33 32 31 30 30 31 32 32 32 32 32 32 32 32 32 32 31 31 30 30 30 29 29 29 29 29 29 29 30 31 32
23 22 22 24 26 27 27 27 27 27 26 24 23 22 22 23 24 26 27 29 31 33 34 34 33 32 31 31 31 32 32 29 27 26 26 27 28 29 31 31 31 29 28 28 27 26 27 27 28 29 31 34 36 35 33 31 30 30 30 31 31 32 32 33 32 32 32 32 32 32 32 32 32 31 31 31 31 30 30 30 30 30 30 30 30 31
25 25 26 28 28 29 29 29 29 29 27 25 24 23 23 25 26 28 29 31 33 34 34 34 32 31 31 30 31 31 31 30 28 28 28 29 29 30 31 32 32 30 29 28 27 27 27 28 29 29 30 32 33 34 33 31 30 31 31 31 32 32 32 32 32 31 32 32 32 32 32 32 32 32 32 32 32 32 32 31 31 31 31 31 31 31
28 28 29 29 29 30 30 31 31 30 28 26 25 25 25 27 28 30 32 33 34 35 34 33 31 30 30 29 30 30 30 29 29 29 29 29 30 30 31 32 31 30 29 29 28 28 28 29 29 29 27 28 29 31 32 32 32 32 32 32 32 32 32 31 31 30 30 31 32 32 32 32 32 33 32 32 32 32 32 33 32 32 32 32 32 32
30 30 30 30 30 30 31 32 32 30 29 27 26 27 27 29 30 32 34 35 35 34 33 31 30 29 29 29 29 28 28 28 28 28 28 29 29 29 30 30 30 29 29 28 28 28 28 27 28 28 27 27 28 30 32 33 34 34 33 33 32 32 32 31 30 29 29 30 30 31 31 32 32 32 32 32 32 32 33 33 33 33 33 33 34 33
31 31 31 30 30 31 32 32 32 31 29 28 27 28 29 31 32 34 35 35 34 33 32 30 29 29 28 28 28 27 27 28 28 28 28 28 28 28 28 28 28 28 27 27 26 26 26 26 27 27 27 28 30 31 32 32 32 33 33 33 33 32 31 29 28 28 28 30 31 32 32 32 31 31 31 32 32 32 32 32 33 33 33 33 34 34
32 31 31 30 31 32 33 33 32 31 29 28 28 29 31 32 34 35 35 35 34 32 31 30 29 28 28 27 27 27 27 27 27 27 27 27 26 26 25 25 26 26 25 25 24 24 25 25 26 27 26 28 30 31 31 31 31 32 32 33 33 32 31 29 29 30 30 30 30 31 32 31 31 31 32 31 31 31 31 32 33 34 34 33 34 34
32 31 31 31 32 33 34 33 32 30 29 29 30 31 33 34 35 36 35 34 33 31 30 29 28 28 27 27 27 27 27 28 28 28 27 26 25 24 23 23 23 23 23 23 23 23 23 24 26 26 26 27 29 30 30 30 30 30 30 31 32 33 33 32 31 30 30 29 29 30 30 30 31 31 32 32 32 32 32 33 33 34 33 32 32 33
32 32 32 32 32 33 32 32 30 30 30 30 32 33 34 35 36 36 35 34 32 30 29 28 27 27 27 27 27 27 28 28 28 28 27 25 23 22 20 20 20 20 20 21 22 23 23 24 25 26 27 27 28 29 30 31 31 31 30 30 31 32 33 32 30 28 28 28 29 29 30 31 32 32 33 33 34 34 33 33 33 33 32 33 33 33
32 32 31 31 31 32 31 31 30 30 31 32 33 34 35 36 36 35 34 32 31 29 28 26 26 26 26 27 27 28 28 27 27 27 26 25 23 21 19 18 18 18 18 20 21 22 23 24 24 25 26 25 26 28 31 31 31 31 29 28 28 29 30 31 30 28 28 28 29 30 31 31 32 33 33 34 34 34 33 33 33 32 32 33 33 34
30 30 29 30 30 31 31 31 31 31 32 33 34 35 36 36 36 35 33 31 30 28 26 25 25 25 26 27 27 28 27 27 26 26 25 24 22 20 19 17 17 17 17 19 20 22 23 24 24 24 24 25 26 27 29 30 31 31 30 29 28 28 29 30 30 30 30 30 30 31 31 30 31 33 33 34 34 34 33 33 33 33 34 34 34 34
29 29 29 29 30 30 30 31 31 32 33 34 35 35 36 36 35 34 32 30 28 27 25 24 24 24 25 26 27 27 26 26 25 24 23 22 21 20 19 17 17 17 17 19 20 21 23 24 25 25 25 26 26 27 28 29 30 31 30 29 28 28 29 30 31 30 30 30 31 31 31 31 31 31 33 33 33 33 34 34 34 34 34 34 34 34
29 29 30 30 30 31 31 31 32 33 34 35 35 36 36 35 34 32 30 28 27 25 24 23 23 24 25 25 26 26 26 25 24 23 22 21 20 19 18 17 17 17 18 19 21 22 23 24 25 25 25 26 27 28 28 29 29 30 30 29 28 28 29 30 31 31 30 30 31 31 31 30 30 31 32 33 33 34 34 33 33 33 34 34 35 35
30 31 31 31 31 31 32 33 33 34 35 35 35 35 34 33 32 30 28 26 25 23 23 23 23 23 24 25 25 24 24 24 24 23 21 20 19 17 16 16 16 17 18 19 21 22 24 24 25 25 26 27 29 30 30 29 29 29 28 28 29 29 29 30 30 30 30 30 30 30 30 30 31 31 32 33 34 34 34 34 34 34 35 35 35 35
31 31 31 31 32 32 33 34 34 35 36 36 35 34 32 31 30 28 26 25 23 22 22 22 22 23 23 24 24 24 23 23 23 22 21 20 19 17 16 15 16 16 18 19 21 22 23 24 24 25 25 27 29 31 31 29 28 28 28 28 28 29 30 30 30 29 29 29 29 29 30 30 31 32 33 34 34 35 36 36 36 36 35 34 35 35
31 32 32 33 33 34 35 35 35 35 36 35 34 32 30 29 28 26 24 23 22 21 21 21 22 22 22 23 23 23 23 22 22 21 20 19 18 17 16 16 16 17 18 19 20 21 22 23 24 24 24 25 27 29 30 30 28 28 28 27 28 29 30 30 29 28 28 28 29 30 31 31 32 33 34 35 36 37 38 37 36 35 35 34 35 35
31 32 33 34 35 36 36 35 35 34 34 32 31 30 29 27 26 25 23 22 21 21 21 21 21 21 22 22 22 22 21 21 21 20 19 18 18 17 16 16 17 17 18 19 19 20 21 22 23 23 22 22 23 25 27 28 29 28 27 27 27 28 28 28 29 29 29 29 30 31 32 32 32 32 33 35 36 36 37 37 36 35 35 34 33 34
31 32 33 34 34 35 34 33 32 32 31 30 29 28 27 26 25 23 22 22 21 21 21 21 21 21 21 21 22 21 20 20 19 19 18 18 17 17 17 17 17 17 18 18 19 19 19 20 21 21 20 19 18 19 22 24 26 27 27 27 27 27 27 28 29 30 30 30 31 31 32 32 32 32 33 34 34 35 36 36 36 35 34 33 33 34
Wind_Direction
295 296 297 297 298 299 299 300 299 299 299 299 299 300 300 299 298 296 293 291 289 287 285 284 282 282 281 280 279 278 278 278 278 279 280 280 281 282 283 284 284 284 285 284 284 284 283 283 282 281 281 280 279 279 279 278 278 278 278 278 278 278 278 278 279 279 279 280 280 280 280 281 281 282 283 284 285 285 285 285 285 285 285 286 287 288
296 298 299 300 300 301 301 302 301 301 301 301 301 301 301 300 298 296 293 290 287 285 283 282 280 279 278 277 277 276 276 276 276 277 278 278 279 280 281 282 282 282 283 282 282 282 281 281 280 279 279 278 278 278 278 278 278 278 278 278 278 278 278 278 278 278 278 278 278 278 279 279 280 281 282 282 282 282 282 283 283 284 285 286 286 287
296 298 299 300 301 301 303 303 302 301 302 302 302 303 302 301 298 295 292 289 286 283 281 279 278 277 276 275 275 275 274 274 274 275 276 277 277 278 279 279 280 280 280 280 280 279 279 279 278 278 277 277 277 278 278 278 278 278 278 278 278 278 277 277 277 277 277 277 277 277 277 278 278 279 279 279 280 280 281 281 282 283 284 285 285 286
297 298 299 300 301 301 302 303 302 302 302 303 303 304 303 301 299 296 293 290 286 283 280 278 277 276 275 274 274 273 273 273 273 274 274 275 275 276 276 276 277 277 277 277 277 277 277 277 277 277 277 277 277 278 278 278 278 278 278 278 277 277 277 276 276 276 276 275 275 275 275 276 276 277 277 277 278 278 279 280 281 282 283 283 284 284
297 298 298 299 300 301 301 301 302 302 303 304 305 305 305 303 300 297 294 290 287 283 280 278 276 275 274 273 273 273 273 273 273 273 273 273 273 274 274 274 274 274 275 275 275 275 275 275 276 276 276 277 277 277 278 278 278 277 277 277 276 276 275 275 274 274 274 273 273 273 274 274 274 275 275 276 277 277 278 279 280 281 281 282 282 283
296 297 298 299 300 300 301 301 302 304 305 306 306 307 307 306 303 300 297 293 289 285 282 279 277 275 274 274 274 274 274 273 273 272 272 272 272 272 272 272 272 272 273 273 273 273 274 274 274 275 275 275 276 276 276 276 276 276 275 275 274 274 273 273 273 272 272 272 272 272 272 273 273 274 274 275 276 277 277 278 279 279 280 281 281 282
296 296 298 299 299 300 302 303 304 306 307 307 308 308 309 308 307 304 301 298 294 291 287 283 279 277 276 276 276 276 275 274 273 272 271 271 270 269 269 269 270 270 270 271 271 271 271 272 272 273 273 274 274 275 275 275 274 274 273 273 273 272 272 271 271 271 271 271 271 271 272 272 272 273 274 274 275 276 277 278 278 279 280 281 281 282
296 297 298 299 301 302 303 304 305 306 306 306 307 308 310 310 309 306 304 302 300 297 294 290 286 283 280 279 279 279 278 276 274 272 270 269 267 267 266 266 266 267 267 268 268 268 269 270 271 272 272 273 274 274 274 274 273 273 272 272 272 272 271 271 271 271 271 271 271 271 272 272 272 273 274 275 275 276 277 278 278 279 280 280 281 281
296 298 299 300 302 303 303 303 303 304 304 305 306 308 311 312 310 307 306 305 305 304 302 299 295 290 287 285 283 283 281 279 276 273 270 268 266 265 264 264 264 264 264 265 266 266 268 269 270 271 272 273 274 274 274 274 273 273 273 272 272 272 271 271 271 271 271 271 271 272 272 272 273 274 275 275 276 277 277 278 278 279 279 280 280 280
297 300 302 302 302 302 302 302 302 302 302 305 308 310 312 312 310 308 307 308 308 308 306 304 300 297 294 291 289 288 286 283 279 275 272 269 267 265 264 263 262 263 263 264 265 266 268 269 271 272 273 274 274 274 274 274 273 273 273 273 272 272 272 271 271 271 271 271 272 272 273 273 274 275 275 276 276 277 277 278 278 279 279 280 280 281
299 302 304 304 302 301 301 301 302 304 305 308 312 314 315 311 308 307 308 309 310 311 310 308 306 303 301 300 298 295 293 290 286 283 279 276 273 271 268 266 265 265 266 266 267 268 269 270 271 273 274 275 275 275 274 274 274 273 273 273 272 272 272 272 272 272 272 272 273 273 274 274 275 275 276 276 277 277 278 279 279 280 281 281 281 281
299 301 303 302 302 301 302 303 305 307 309 311 312 312 309 304 304 306 308 310 312 314 314 312 310 308 307 307 306 303 301 298 296 293 291 289 286 282 279 277 275 274 274 273 272 272 272 272 273 274 275 275 275 275 274 274 273 273 273 272 272 272 272 272 272 272 273 273 273 274 274 275 275 276 277 277 278 279 280 281 282 282 282 283 282 282
298 299 299 300 299 300 301 303 304 305 306 306 304 301 298 298 303 307 310 312 314 315 316 315 312 311 310 310 309 309 307 305 302 300 299 299 298 297 295 292 290 289 287 285 283 281 279 278 277 277 277 276 276 275 274 273 273 272 272 272 272 272 272 272 273 273 273 274 274 275 276 276 277 278 278 279 280 281 282 283 284 284 284 284 283 283
294 295 295 295 295 296 297 297 297 297 297 298 298 296 297 300 305 309 312 314 315 315 316 315 314 314 315 314 313 311 310 309 307 305 304 304 304 304 303 302 300 298 297 295 292 290 287 286 284 282 280 278 277 276 275 274 274 273 273 273 273 273 274 274 274 275 275 276 276 277 278 278 279 280 281 282 283 283 284 285 285 285 285 285 284 284
289 290 289 288 289 290 290 291 292 293 295 296 296 297 299 303 306 310 312 313 315 316 317 316 315 315 317 317 315 313 311 311 310 309 308 306 306 306 307 306 303 302 301 300 298 296 294 292 290 287 284 281 279 279 278 278 277 277 276 276 276 276 277 277 277 278 278 279 279 280 280 281 282 283 283 284 285 285 286 286 286 286 286 285 285 284
286 286 285 285 285 286 287 289 290 292 292 293 292 293 297 301 306 309 311 312 315 317 318 318 317 317 318 316 314 313 313 312 310 308 306 306 306 307 309 308 306 305 304 304 303 301 299 298 295 291 288 286 284 284 284 283 282 281 280 280 280 280 280 280 281 281 281 281 282 282 283 283 284 285 286 287 287 287 287 287 286 286 286 285 285 284
282 281 281 282 282 283 286 286 285 285 287 288 289 292 297 301 305 307 309 312 315 317 318 318 317 316 315 314 312 310 311 310 307 305 304 304 305 307 310 309 308 307 307 307 307 306 305 304 300 296 292 290 289 289 289 287 286 285 284 283 283 283 283 283 283 283 283 284 284 285 285 286 287 288 289 289 289 288 288 287 287 287 286 285 285 283
278 277 278 278 279 281 283 283 283 284 285 286 289 293 298 301 303 305 307 310 312 313 314 314 311 308 308 307 306 304 305 304 303 303 304 305 306 307 310 310 310 310 311 311 310 309 309 307 304 301 297 294 292 292 291 290 288 287 287 286 286 286 286 286 286 286 286 286 287 288 289 289 290 290 290 290 289 289 288 287 287 287 286 285 284 284
274 273 273 273 276 278 279 280 281 283 285 286 289 294 297 298 299 301 304 308 309 309 308 307 305 302 301 300 301 303 303 303 304 304 305 306 307 309 310 312 312 313 313 313 312 311 310 308 306 303 299 297 295 294 294 293 292 291 291 290 290 290 289 289 289 289 289 290 290 290 291 291 291 291 291 290 289 289 288 288 287 287 286 285 285 284
268 268 268 270 273 275 277 278 280 281 282 285 288 292 293 296 298 301 305 307 307 306 304 302 299 299 299 299 300 302 303 304 305 306 305 306 307 309 310 312 313 312 312 312 311 310 311 310 308 306 303 301 300 299 299 298 297 296 295 294 293 293 292 292 292 292 292 292 292 292 292 292 292 292 291 291 290 290 289 289 288 288 287 286 285 285
261 263 265 267 270 272 274 276 278 278 279 283 287 290 292 296 299 302 305 304 302 300 298 296 294 295 296 296 298 300 304 306 307 306 306 306 306 308 310 312 312 311 310 310 310 310 310 310 309 308 307 305 304 304 303 302 301 299 298 297 296 295 295 295 295 295 294 294 293 293 293 294 294 293 293 292 292 291 291 290 290 289 288 288 287 285
259 262 266 268 268 269 271 273 275 276 278 281 284 288 292 296 299 302 303 301 299 297 294 291 291 293 295 295 298 302 306 307 306 305 304 302 303 305 309 311 311 309 308 308 309 310 310 310 310 309 308 307 307 306 305 304 302 301 299 298 298 298 298 298 297 297 296 295 295 295 295 295 296 295 295 294 293 293 292 291 290 289 289 288 287 286
262 265 268 269 269 270 271 272 273 276 278 280 284 289 294 298 301 302 301 299 298 297 294 291 291 291 293 295 299 303 305 306 305 303 300 297 299 303 308 310 309 308 307 308 309 310 310 310 310 310 310 309 308 308 307 305 303 301 300 300 300 301 301 301 300 299 298 297 297 297 297 298 298 297 296 296 295 294 293 292 291 290 289 288 287 286
265 268 269 270 271 272 272 273 274 276 278 282 288 295 300 302 302 299 296 294 291 288 287 286 288 290 293 295 298 301 303 304 303 300 296 293 296 301 306 308 308 307 307 308 309 310 310 310 310 310 310 310 309 308 307 305 304 302 302 302 303 304 304 303 302 301 300 300 300 300 299 299 299 298 297 296 295 295 294 293 292 291 291 290 289 288
269 270 271 271 272 273 273 274 274 276 281 289 296 303 306 305 301 295 289 283 279 279 282 286 290 293 295 297 299 300 301 302 300 297 295 294 296 300 304 307 308 308 308 308 309 309 310 310 310 310 310 310 310 309 308 307 306 305 305 306 307 308 307 306 305 303 302 302 302 301 301 301 300 299 298 297 297 296 296 295 294 294 293 293 292 290
272 273 273 273 273 273 272 272 273 279 289 297 302 304 304 298 290 283 278 277 279 283 287 291 293 294 296 298 299 299 301 301 298 295 294 295 296 299 303 306 308 308 308 308 309 310 310 311 311 311 311 311 311 311 310 310 309 309 310 311 311 311 310 309 307 306 305 304 304 303 303 302 302 301 300 300 299 299 299 298 298 297 297 296 294 292
274 273 273 273 272 272 271 271 274 283 291 292 291 289 285 279 274 272 274 277 281 285 289 292 294 296 298 298 298 299 300 299 296 293 293 294 295 296 300 305 307 307 306 307 308 310 310 311 311 312 312 312 312 312 312 312 312 312 313 313 313 312 311 310 309 308 307 307 307 306 306 305 305 304 304 303 303 302 302 302 302 301 300 298 297 295
273 273 273 272 272 272 271 271 272 274 274 271 266 263 261 261 265 269 273 276 279 284 288 291 294 296 298 297 298 299 300 299 298 297 294 293 290 291 297 303 305 305 305 306 308 309 310 310 311 312 312 312 312 312 312 313 313 313 313 313 313 313 312 311 311 311 311 311 311 310 310 309 309 308 307 307 306 306 305 305 305 304 302 301 299 297
273 273 273 272 272 272 272 269 264 259 255 252 251 250 251 255 260 265 269 273 278 284 288 291 293 295 296 297 299 300 300 300 301 299 295 292 289 290 297 301 303 304 306 308 309 309 308 308 309 311 311 310 310 310 310 311 312 313 313 314 313 313 313 313 313 314 314 314 313 313 313 313 312 311 311 310 309 308 308 308 308 306 304 303 301 299
275 274 274 274 274 274 272 269 263 256 251 249 249 250 252 255 259 263 267 273 279 285 289 291 293 294 295 296 297 297 298 300 300 296 294 292 291 293 298 300 301 303 306 308 309 308 307 307 307 307 307 308 308 308 309 310 312 313 314 314 314 314 314 315 315 315 316 315 315 315 315 315 315 314 313 312 311 311 310 310 310 308 306 304 303 301
276 274 274 274 275 274 273 270 266 263 259 257 256 256 257 259 261 265 270 277 284 288 290 291 293 294 293 292 290 290 291 293 294 294 294 294 293 294 296 298 299 301 303 304 305 306 306 305 305 305 306 307 307 308 309 311 313 314 315 315 315 315 315 316 316 317 317 317 317 317 316 316 316 315 314 313 313 312 312 312 312 311 308 306 304 303
274 273 273 273 273 272 272 272 272 270 267 265 264 263 263 264 267 272 278 285 288 289 289 291 294 294 291 287 283 282 285 287 289 289 290 290 290 291 294 296 297 298 299 298 297 297 299 300 303 305 306 308 309 310 311 312 314 315 316 316 315 315 315 316 317 317 317 317 317 317 316 316 316 316 315 315 315 315 315 315 314 312 310 307 305 303
274 274 274 273 273 273 275 276 276 275 273 270 269 268 269 273 278 284 287 288 287 287 289 292 294 294 291 288 285 284 286 287 288 287 286 286 287 289 291 293 294 294 296 296 295 293 292 294 300 304 307 308 309 310 311 312 314 315 316 315 315 315 315 316 317 317 316 316 316 316 316 316 317 317 317 317 317 317 317 316 315 313 310 307 304 302
276 275 274 273 273 276 278 280 280 279 277 276 275 275 278 281 285 287 287 287 287 288 291 293 294 293 291 288 287 287 288 289 289 288 286 285 286 288 290 292 293 294 296 296 295 293 291 292 296 301 304 306 307 308 309 312 314 314 314 314 314 314 314 315 315 315 315 316 315 315 316 317 318 318 318 317 317 317 316 315 313 311 308 305 302 300
276 274 271 272 274 277 280 281 281 281 281 280 279 280 282 284 284 285 285 286 288 291 293 294 293 292 290 287 286 286 288 289 289 287 285 284 285 287 290 291 292 294 294 294 293 292 291 292 293 296 299 302 304 306 309 311 313 313 312 312 311 312 313 314 315 315 315 315 315 315 316 317 317 317 316 316 315 315 314 313 311 309 307 304 301 299
275 273 271 273 275 277 278 279 281 282 283 283 282 282 283 283 283 284 286 288 291 293 294 294 292 291 288 287 286 286 288 289 289 287 286 286 287 288 289 291 292 293 292 291 290 289 289 291 292 294 296 298 301 305 308 310 310 310 309 310 310 311 312 314 315 315 315 314 314 314 314 315 315 314 314 313 313 313 312 311 310 309 307 305 302 299
271 270 269 271 273 274 275 278 281 283 284 285 284 284 284 284 284 286 288 291 292 293 293 292 291 289 287 286 286 287 288 290 290 289 289 289 290 290 290 291 292 292 290 289 288 288 288 290 292 293 293 294 296 300 305 307 308 308 309 310 311 311 312 314 315 315 313 312 312 312 312 312 312 311 311 312 312 311 310 310 309 308 307 305 303 300
266 266 267 268 269 271 273 276 280 282 283 284 284 283 283 284 286 288 291 292 293 293 293 292 290 288 286 285 285 286 287 288 289 290 291 292 292 292 292 292 292 291 289 287 287 287 287 287 288 290 291 292 293 297 301 305 307 308 309 311 311 311 312 314 314 313 311 309 308 308 308 308 309 309 309 309 309 308 307 307 307 307 306 305 303 300
262 263 264 265 267 269 273 276 279 281 282 282 282 283 284 286 288 290 292 293 294 294 293 291 289 287 286 285 285 285 286 287 289 290 291 292 293 293 292 291 290 289 288 286 285 284 283 283 284 285 288 291 294 297 301 303 305 307 309 310 311 310 311 311 310 308 306 305 305 305 306 307 307 307 306 306 306 305 304 303 304 304 304 303 302 300
259 260 262 264 266 269 272 275 278 280 281 281 283 284 285 287 289 291 293 294 294 294 293 291 289 288 287 286 286 286 287 288 289 291 292 294 294 293 291 290 288 288 287 285 283 282 281 281 283 284 285 288 292 296 299 301 303 305 307 307 306 306 308 307 305 304 304 304 304 305 306 306 306 305 304 304 302 301 300 299 300 301 301 299 298 298
257 259 261 263 266 268 271 274 276 278 280 281 282 283 285 287 290 292 294 295 295 294 293 291 289 288 288 288 288 289 290 291 292 293 295 296 296 294 292 289 288 286 285 283 282 281 281 281 283 284 285 287 291 293 295 296 299 300 301 300 301 303 305 305 304 305 306 305 304 304 304 304 302 301 301 300 299 298 298 297 297 298 298 296 294 293
256 258 261 264 266 269 271 274 276 278 280 280 281 283 285 288 290 292 294 295 295 294 292 290 289 289 289 290 291 292 293 294 296 297 298 298 298 297 294 290 287 285 283 283 282 282 282 282 283 284 285 287 289 291 292 294 296 297 297 297 299 303 305 305 305 306 305 303 302 301 300 300 299 298 298 297 297 297 297 296 295 295 294 293 291 289
258 260 262 264 266 269 271 274 275 276 278 279 281 284 287 289 291 293 294 294 293 292 291 289 289 289 290 291 292 294 295 297 298 300 301 301 301 300 297 292 288 284 283 282 283 284 284 285 283 283 286 287 288 288 289 292 295 296 295 295 296 298 298 299 302 302 300 298 298 297 297 296 296 297 297 297 296 296 295 294 293 291 290 289 289 288
262 263 264 265 267 269 271 272 273 275 278 280 283 285 288 290 292 293 293 293 292 291 290 289 289 290 291 291 293 296 297 299 300 301 302 303 303 303 300 295 290 286 284 282 283 285 287 286 285 284 287 288 287 286 287 290 292 294 294 294 293 292 290 294 297 298 297 296 296 296 296 295 296 297 296 296 295 294 292 292 291 290 290 289 288 287
265 266 266 266 267 267 268 270 272 275 278 280 283 285 288 289 291 292 292 291 291 290 289 288 289 290 290 292 294 297 299 300 300 301 302 303 304 303 301 298 293 290 287 286 286 286 286 285 286 288 290 289 286 285 285 287 289 291 293 293 292 290 290 292 294 295 295 295 295 295 296 297 296 294 294 293 292 291 291 290 290 290 290 289 288 287
264 265 265 265 264 265 266 269 272 275 278 280 283 285 287 288 289 290 290 290 289 288 287 287 287 288 290 292 295 297 299 300 300 300 301 301 302 302 301 300 297 294 291 290 289 288 287 285 287 290 289 288 286 284 284 286 287 289 290 292 292 291 291 292 293 293 294 295 295 296 297 297 295 293 291 291 291 290 290 289 288 288 289 289 288 287
261 261 261 261 262 264 267 270 273 276 279 281 284 285 286 287 288 289 289 289 288 286 286 286 286 288 290 293 295 297 299 300 300 301 301 301 302 302 300 298 297 295 291 289 288 287 287 289 291 290 287 285 285 285 287 288 288 287 289 290 291 292 291 292 293 294 295 294 294 295 295 295 293 291 290 290 291 290 290 289 288 288 289 289 289 288
258 259 259 260 262 264 267 271 274 277 280 283 284 285 286 286 287 288 288 287 286 284 284 284 287 289 292 294 296 297 298 299 300 301 302 303 305 305 303 299 295 292 290 288 287 287 288 290 292 291 287 285 284 286 288 290 289 288 290 290 290 291 291 291 293 294 294 292 292 292 292 291 291 290 291 291 290 290 290 290 290 290 290 290 289 289
256 257 259 261 263 266 269 272 276 279 281 283 284 284 284 286 286 287 286 284 283 282 282 284 287 290 292 294 295 297 298 298 300 302 304 305 306 306 304 300 296 293 292 291 291 292 293 294 293 291 289 287 286 286 289 291 291 290 291 290 289 289 290 291 292 293 292 291 291 291 290 290 289 289 290 290 290 290 290 291 291 290 290 291 290 290
256 257 259 262 265 268 271 275 278 281 282 282 283 283 283 284 285 284 283 281 280 281 283 285 288 290 292 294 295 296 297 298 300 302 304 305 304 303 301 298 297 296 296 296 296 296 295 295 294 292 290 287 286 286 288 290 292 292 290 288 287 288 288 289 290 291 291 292 292 291 291 290 290 290 290 289 289 289 290 290 290 290 291 292 292 291
258 260 262 264 267 271 275 278 281 282 282 281 281 282 282 283 283 282 281 280 280 282 285 287 289 291 292 294 295 296 297 299 300 301 303 302 302 300 298 298 297 297 297 297 297 297 296 295 295 293 290 288 285 283 284 285 287 288 287 286 286 286 287 288 290 291 292 293 293 293 292 292 291 291 290 289 288 289 289 290 290 290 291 292 292 291
Height
1467 1467 1466 1466 1465 1464 1463 1463 1462 1461 1460 1460 1460 1459 1458 1458 1457 1457 1456 1456 1455 1455 1454 1453 1453 1452 1451 1451 1450 1449 1449 1448 1447 1447 1447 1446 1446 1445 1445 1445 1444 1444 1443 1443 1442 1442 1442 1441 1441 1441 1440 1440 1439 1439 1439 1438 1438 1438 1437 1437 1437 1436 1436 1436 1435 1435 1434 1434 1433 1433 1432 1431 1431 1431 1430 1429 1429 1429 1428 1428 1427 1427 1426 1426 1426 1426
1466 1466 1465 1464 1463 1462 1461 1461 1461 1460 1459 1458 1458 1458 1457 1456 1456 1455 1455 1454 1454 1453 1453 1452 1451 1451 1450 1449 1448 1448 1447 1446 1446 1446 1445 1445 1444 1444 1443 1443 1442 1442 1441 1441 1441 1440 1440 1439 1439 1439 1438 1438 1437 1437 1437 1436 1436 1436 1436 1435 1435 1435 1434 1434 1433 1433 1432 1432 1431 1431 1430 1430 1429 1428 1428 1427 1427 1427 1426 1426 1426 1425 1425 1424 1424 1424
1465 1464 1463 1463 1462 1461 1460 1460 1459 1458 1458 1457 1456 1456 1456 1455 1454 1454 1453 1453 1452 1452 1451 1451 1450 1450 1449 1448 1447 1446 1446 1445 1445 1444 1443 1443 1443 1442 1442 1441 1441 1440 1440 1439 1439 1438 1438 1438 1437 1437 1436 1436 1436 1435 1435 1435 1434 1434 1434 1433 1433 1432 1432 1432 1431 1431 1430 1430 1429 1429 1428 1427 1427 1426 1426 1426 1425 1425 1424 1424 1424 1423 1423 1422 1422 1422
1464 1463 1462 1461 1461 1460 1459 1459 1458 1457 1456 1456 1455 1455 1454 1454 1453 1452 1452 1451 1451 1451 1450 1450 1449 1448 1448 1447 1446 1445 1445 1444 1443 1442 1442 1441 1441 1441 1440 1440 1439 1438 1438 1437 1437 1436 1436 1436 1435 1435 1435 1434 1434 1433 1433 1432 1432 1432 1431 1431 1431 1431 1430 1430 1429 1429 1428 1428 1427 1426 1426 1426 1425 1425 1424 1424 1423 1423 1422 1422 1421 1421 1421 1421 1420 1420
1463 1462 1461 1460 1460 1459 1458 1457 1456 1456 1455 1454 1453 1453 1452 1452 1451 1451 1451 1450 1450 1449 1448 1448 1448 1447 1446 1446 1445 1444 1443 1442 1442 1441 1441 1440 1440 1439 1438 1438 1437 1437 1436 1436 1435 1435 1434 1434 1434 1433 1433 1432 1432 1431 1431 1431 1430 1430 1430 1429 1429 1428 1428 1428 1427 1427 1426 1426 1425 1425 1424 1424 1423 1423 1422 1422 1421 1421 1421 1420 1420 1419 1419 1419 1418 1418
1461 1461 1460 1459 1458 1457 1457 1456 1455 1454 1453 1452 1452 1451 1451 1450 1450 1449 1449 1448 1448 1447 1447 1447 1446 1446 1445 1444 1444 1443 1442 1441 1441 1440 1439 1438 1438 1437 1437 1436 1436 1435 1435 1434 1434 1433 1433 1432 1432 1431 1431 1431 1430 1430 1429 1429 1428 1428 1428 1427 1427 1426 1426 1426 1425 1425 1424 1424 1423 1423 1422 1422 1421 1421 1420 1420 1419 1419 1419 1418 1418 1417 1417 1416 1416 1416
1460 1459 1459 1458 1457 1456 1456 1455 1454 1453 1452 1451 1451 1450 1449 1449 1448 1448 1447 1447 1446 1446 1446 1445 1445 1444 1444 1443 1442 1441 1441 1440 1439 1438 1438 1437 1436 1436 1435 1435 1434 1434 1433 1433 1432 1431 1431 1431 1430 1430 1429 1429 1428 1428 1427 1427 1426 1426 1426 1426 1425 1425 1424 1424 1423 1423 1422 1422 1421 1421 1420 1420 1419 1419 1418 1418 1417 1417 1417 1416 1416 1415 1415 1414 1414 1413
1458 1457 1457 1456 1456 1455 1454 1454 1453 1452 1451 1451 1450 1449 1448 1447 1447 1446 1446 1445 1445 1444 1444 1443 1443 1442 1442 1441 1441 1440 1439 1439 1438 1437 1436 1436 1435 1434 1434 1433 1433 1432 1432 1431 1431 1430 1430 1429 1428 1428 1427 1427 1426 1426 1426 1425 1425 1424 1424 1423 1423 1423 1422 1422 1421 1421 1420 1420 1419 1419 1418 1418 1417 1417 1416 1416 1416 1415 1415 1414 1414 1413 1413 1412 1412 1411
1456 1456 1456 1455 1454 1454 1453 1452 1452 1451 1451 1450 1449 1448 1447 1446 1446 1445 1444 1444 1443 1443 1442 1442 1441 1441 1440 1440 1439 1439 1438 1437 1436 1436 1435 1434 1434 1433 1432 1432 1431 1431 1430 1430 1429 1429 1428 1427 1427 1426 1426 1425 1425 1424 1424 1423 1423 1422 1422 1421 1421 1421 1420 1420 1419 1419 1418 1418 1417 1417 1416 1416 1415 1415 1414 1414 1413 1413 1412 1412 1411 1411 1411 1410 1409 1409
1455 1454 1454 1453 1453 1453 1452 1451 1451 1451 1450 1449 1448 1447 1446 1446 1445 1444 1443 1442 1442 1441 1441 1440 1440 1439 1438 1438 1438 1437 1436 1436 1435 1434 1434 1433 1432 1432 1431 1431 1430 1430 1429 1428 1428 1427 1426 1426 1425 1424 1424 1423 1423 1422 1422 1421 1421 1421 1420 1420 1419 1419 1418 1418 1417 1417 1416 1416 1415 1415 1414 1414 1413 1413 1412 1412 1411 1411 1410 1410 1409 1409 1408 1407 1407 1406
1454 1453 1453 1452 1452 1451 1451 1451 1450 1449 1448 1448 1447 1446 1446 1445 1444 1443 1442 1441 1441 1440 1439 1439 1438 1437 1436 1436 1436 1435 1435 1434 1433 1433 1432 1431 1431 1430 1430 1429 1428 1428 1427 1426 1426 1425 1425 1424 1423 1423 1422 1421 1421 1421 1420 1419 1419 1418 1418 1418 1417 1417 1416 1416 1415 1415 1414 1414 1413 1413 1412 1412 1411 1411 1410 1410 1409 1408 1408 1407 1406 1406 1406 1405 1405 1404
1453 1452 1452 1451 1451 1451 1450 1449 1449 1448 1447 1447 1447 1446 1446 1445 1444 1443 1442 1441 1439 1438 1438 1437 1436 1436 1435 1435 1434 1433 1433 1432 1431 1431 1430 1430 1429 1428 1428 1427 1426 1426 1425 1425 1424 1423 1423 1422 1421 1421 1421 1420 1419 1419 1418 1418 1417 1416 1416 1416 1415 1415 1414 1414 1413 1413 1412 1412 1411 1411 1410 1410 1409 1409 1408 1407 1407 1406 1406 1405 1404 1403 1403 1402 1402 1401
1452 1452 1451 1451 1450 1450 1449 1449 1448 1447 1447 1447 1446 1446 1445 1444 1443 1442 1441 1440 1438 1437 1436 1436 1435 1434 1434 1433 1432 1431 1431 1431 1430 1429 1428 1428 1427 1426 1426 1425 1424 1424 1423 1422 1422 1421 1421 1420 1420 1419 1419 1418 1417 1417 1416 1416 1415 1415 1414 1414 1413 1413 1412 1412 1411 1411 1411 1410 1409 1409 1408 1408 1407 1406 1406 1405 1405 1404 1403 1402 1402 1401 1400 1400 1399 1398
1451 1451 1451 1450 1449 1449 1449 1449 1448 1447 1446 1446 1446 1445 1444 1442 1441 1441 1440 1438 1437 1436 1436 1435 1434 1433 1432 1432 1431 1430 1430 1429 1428 1427 1427 1426 1426 1425 1424 1423 1422 1422 1421 1421 1420 1419 1419 1418 1418 1417 1417 1416 1416 1415 1414 1414 1413 1413 1412 1412 1411 1411 1411 1410 1410 1409 1408 1408 1407 1407 1406 1406 1405 1404 1404 1403 1402 1401 1401 1400 1399 1398 1398 1397 1396 1396
1451 1451 1450 1449 1449 1448 1448 1448 1447 1446 1446 1445 1445 1443 1442 1441 1440 1440 1439 1437 1436 1435 1435 1434 1432 1432 1432 1431 1430 1429 1429 1428 1427 1426 1425 1425 1424 1424 1423 1422 1421 1420 1419 1419 1418 1417 1416 1416 1416 1415 1415 1414 1414 1413 1412 1412 1411 1411 1410 1410 1409 1409 1408 1408 1407 1407 1406 1406 1405 1405 1404 1403 1403 1402 1401 1401 1400 1399 1398 1397 1396 1396 1395 1394 1394 1393
1450 1450 1449 1448 1448 1447 1447 1447 1446 1446 1445 1444 1443 1442 1441 1440 1439 1438 1438 1436 1435 1434 1433 1432 1431 1431 1431 1431 1430 1429 1428 1427 1426 1425 1424 1423 1423 1422 1421 1420 1419 1418 1417 1417 1416 1415 1415 1414 1414 1413 1413 1412 1411 1411 1411 1410 1409 1409 1408 1408 1407 1407 1406 1406 1405 1405 1404 1404 1403 1402 1402 1401 1400 1400 1399 1398 1397 1396 1396 1395 1394 1393 1392 1392 1391 1390
1449 1449 1448 1447 1447 1446 1446 1446 1445 1445 1444 1443 1442 1441 1441 1440 1439 1437 1436 1436 1435 1434 1433 1432 1431 1430 1430 1430 1430 1430 1428 1427 1426 1424 1423 1421 1421 1421 1420 1419 1417 1416 1415 1415 1414 1413 1412 1412 1411 1411 1411 1410 1410 1409 1408 1408 1407 1407 1406 1406 1405 1405 1404 1404 1403 1403 1402 1401 1401 1400 1399 1399 1398 1397 1396 1396 1395 1394 1393 1392 1391 1391 1390 1389 1388 1387
1448 1447 1447 1446 1446 1445 1445 1444 1444 1443 1443 1442 1441 1440 1440 1439 1438 1437 1436 1435 1434 1433 1432 1432 1431 1431 1430 1429 1429 1429 1428 1427 1425 1423 1421 1420 1419 1419 1418 1417 1416 1415 1413 1412 1412 1411 1411 1410 1409 1409 1408 1408 1407 1407 1406 1406 1405 1405 1404 1404 1403 1403 1402 1402 1401 1401 1400 1399 1399 1398 1397 1396 1396 1395 1394 1393 1392 1391 1391 1390 1389 1388 1387 1386 1386 1385
1446 1446 1446 1445 1445 1444 1443 1443 1442 1442 1441 1441 1440 1440 1439 1438 1437 1436 1435 1434 1433 1433 1432 1431 1431 1430 1429 1428 1428 1427 1427 1426 1424 1422 1420 1418 1417 1417 1416 1415 1414 1412 1411 1411 1410 1409 1408 1408 1407 1407 1406 1406 1405 1405 1404 1404 1403 1402 1402 1402 1401 1401 1400 1400 1399 1398 1398 1397 1396 1396 1395 1394 1393 1392 1391 1391 1390 1389 1388 1387 1386 1386 1385 1384 1383 1382
1445 1444 1444 1444 1443 1442 1442 1441 1441 1441 1440 1440 1439 1438 1437 1436 1436 1435 1434 1433 1432 1432 1431 1431 1430 1429 1428 1427 1426 1426 1426 1424 1423 1421 1418 1416 1415 1415 1415 1414 1412 1411 1410 1409 1408 1407 1406 1406 1405 1404 1404 1403 1403 1402 1402 1401 1401 1401 1400 1400 1399 1399 1398 1397 1397 1396 1396 1395 1394 1393 1392 1392 1391 1390 1389 1388 1387 1386 1386 1385 1384 1383 1382 1381 1380 1379
1442 1441 1441 1442 1441 1441 1440 1439 1439 1439 1439 1438 1438 1437 1436 1436 1435 1434 1433 1432 1431 1431 1430 1430 1429 1428 1427 1426 1425 1424 1424 1423 1422 1420 1417 1415 1413 1413 1413 1412 1411 1409 1408 1407 1406 1405 1405 1404 1403 1402 1401 1401 1401 1400 1400 1399 1399 1398 1398 1397 1397 1396 1396 1396 1395 1394 1393 1392 1392 1391 1390 1389 1388 1388 1387 1386 1385 1384 1383 1382 1381 1380 1379 1378 1377 1376
1440 1439 1439 1439 1439 1439 1438 1437 1437 1437 1437 1437 1436 1436 1436 1435 1434 1433 1432 1431 1431 1430 1429 1428 1427 1426 1425 1424 1423 1422 1422 1422 1421 1419 1416 1414 1411 1411 1412 1411 1410 1408 1406 1405 1404 1403 1402 1401 1401 1400 1400 1399 1399 1398 1398 1397 1397 1396 1396 1396 1395 1395 1394 1393 1392 1392 1391 1390 1389 1388 1388 1387 1386 1385 1384 1383 1382 1381 1381 1380 1379 1377 1376 1376 1375 1373
1437 1437 1437 1437 1437 1436 1436 1436 1435 1435 1435 1435 1435 1435 1435 1434 1433 1432 1431 1431 1430 1429 1428 1426 1426 1424 1424 1422 1421 1421 1421 1421 1420 1418 1416 1413 1410 1409 1410 1410 1408 1406 1405 1403 1402 1401 1400 1400 1399 1398 1397 1397 1396 1396 1395 1395 1395 1394 1394 1393 1393 1392 1392 1391 1390 1389 1388 1388 1387 1386 1385 1384 1384 1383 1382 1381 1380 1379 1378 1377 1376 1375 1374 1373 1371 1371
1436 1435 1435 1435 1435 1434 1434 1434 1433 1433 1434 1434 1434 1433 1433 1432 1432 1431 1430 1429 1429 1428 1427 1425 1424 1423 1422 1422 1421 1420 1420 1420 1419 1417 1416 1412 1410 1408 1408 1408 1406 1405 1402 1402 1401 1400 1398 1397 1396 1396 1395 1395 1394 1394 1393 1392 1392 1392 1391 1391 1391 1390 1389 1388 1388 1387 1386 1385 1385 1384 1383 1382 1381 1381 1380 1379 1378 1376 1376 1375 1373 1372 1371 1370 1369 1368
1434 1434 1433 1433 1433 1432 1432 1432 1432 1432 1432 1432 1432 1431 1431 1431 1430 1429 1429 1428 1427 1426 1425 1424 1423 1422 1421 1420 1420 1419 1418 1418 1418 1416 1414 1411 1409 1407 1407 1406 1405 1403 1401 1400 1399 1398 1396 1395 1394 1394 1393 1392 1392 1391 1391 1390 1390 1389 1389 1388 1388 1387 1387 1386 1385 1385 1384 1383 1382 1381 1381 1380 1379 1378 1377 1376 1375 1374 1373 1372 1371 1369 1368 1367 1366 1365
1432 1431 1431 1431 1431 1431 1430 1430 1430 1430 1430 1430 1430 1430 1430 1430 1429 1428 1427 1426 1426 1425 1424 1423 1422 1421 1420 1419 1418 1417 1417 1417 1416 1415 1413 1411 1408 1406 1405 1405 1404 1402 1399 1398 1397 1396 1395 1393 1392 1391 1391 1390 1389 1389 1388 1388 1387 1386 1386 1386 1385 1385 1384 1383 1383 1382 1381 1381 1380 1379 1378 1377 1376 1376 1375 1374 1373 1371 1371 1369 1368 1367 1365 1364 1363 1361
1430 1430 1429 1429 1429 1428 1428 1428 1428 1429 1429 1430 1430 1430 1431 1430 1428 1427 1426 1425 1425 1425 1424 1422 1421 1419 1418 1417 1416 1416 1415 1415 1415 1414 1412 1411 1407 1405 1403 1403 1403 1401 1398 1396 1395 1394 1393 1391 1390 1389 1388 1388 1387 1387 1386 1386 1385 1384 1384 1383 1383 1382 1381 1381 1380 1379 1379 1378 1377 1376 1376 1375 1374 1373 1372 1371 1370 1369 1368 1367 1366 1364 1363 1361 1360 1358
1428 1427 1427 1427 1427 1426 1426 1426 1427 1427 1428 1429 1430 1430 1429 1428 1426 1425 1424 1424 1424 1423 1422 1421 1420 1418 1417 1416 1414 1413 1413 1412 1412 1411 1411 1409 1407 1404 1403 1402 1401 1400 1398 1395 1393 1392 1391 1390 1389 1388 1387 1386 1386 1385 1384 1384 1383 1382 1381 1381 1380 1379 1379 1378 1377 1376 1376 1375 1374 1374 1373 1372 1371 1371 1370 1369 1368 1366 1366 1364 1363 1361 1360 1358 1357 1355
1426 1425 1425 1425 1425 1425 1425 1425 1425 1426 1426 1426 1426 1426 1425 1425 1424 1423 1422 1422 1422 1422 1421 1420 1419 1418 1416 1414 1413 1411 1411 1410 1410 1410 1409 1408 1405 1403 1402 1401 1400 1399 1397 1394 1391 1389 1389 1388 1388 1387 1386 1385 1384 1383 1382 1381 1381 1380 1379 1378 1377 1376 1376 1375 1374 1374 1373 1372 1371 1371 1370 1369 1368 1368 1367 1366 1365 1364 1363 1362 1361 1359 1357 1356 1354 1352
1424 1424 1423 1423 1423 1423 1423 1423 1423 1423 1423 1423 1423 1423 1423 1423 1422 1422 1421 1421 1421 1420 1419 1418 1417 1416 1416 1414 1411 1410 1409 1409 1409 1408 1407 1406 1404 1402 1401 1400 1399 1398 1397 1395 1391 1388 1386 1386 1386 1386 1385 1384 1382 1381 1381 1380 1379 1377 1376 1376 1375 1374 1373 1372 1371 1371 1370 1369 1369 1368 1367 1366 1366 1365 1364 1363 1363 1362 1361 1360 1358 1357 1355 1353 1351 1350
1422 1422 1422 1421 1421 1421 1421 1421 1421 1421 1421 1421 1421 1421 1421 1421 1421 1421 1420 1420 1419 1418 1417 1416 1416 1415 1415 1413 1411 1409 1407 1408 1408 1407 1405 1404 1402 1400 1400 1399 1397 1397 1397 1396 1393 1389 1385 1383 1383 1384 1383 1382 1381 1380 1379 1377 1376 1375 1374 1373 1372 1371 1370 1370 1369 1368 1367 1366 1366 1365 1364 1364 1363 1362 1361 1361 1360 1359 1358 1357 1356 1355 1353 1351 1349 1347
1421 1420 1420 1420 1420 1420 1419 1419 1419 1419 1419 1419 1419 1419 1419 1419 1419 1418 1418 1417 1417 1416 1416 1415 1414 1413 1413 1412 1410 1408 1406 1406 1406 1406 1404 1403 1401 1399 1398 1398 1396 1395 1395 1394 1394 1392 1388 1382 1380 1380 1381 1380 1378 1377 1376 1376 1375 1373 1372 1371 1369 1368 1368 1367 1366 1365 1364 1364 1363 1362 1361 1361 1360 1360 1359 1358 1357 1356 1356 1355 1354 1352 1351 1349 1347 1345
1419 1418 1418 1418 1418 1417 1417 1417 1417 1417 1417 1416 1416 1416 1416 1416 1416 1416 1415 1415 1415 1415 1414 1413 1412 1411 1410 1409 1407 1406 1404 1404 1404 1404 1403 1401 1399 1397 1396 1396 1395 1394 1393 1392 1391 1391 1388 1384 1381 1378 1377 1377 1376 1375 1374 1373 1373 1371 1370 1369 1367 1366 1366 1365 1364 1363 1362 1361 1360 1359 1359 1358 1357 1356 1356 1355 1354 1354 1353 1352 1351 1350 1349 1347 1345 1343
1417 1416 1416 1416 1416 1415 1415 1415 1415 1415 1414 1414 1414 1414 1414 1414 1414 1413 1413 1413 1413 1413 1412 1411 1410 1409 1407 1406 1405 1403 1402 1402 1402 1402 1401 1400 1398 1396 1394 1394 1393 1392 1391 1390 1389 1388 1386 1384 1381 1379 1376 1374 1374 1373 1373 1372 1371 1370 1369 1367 1366 1365 1363 1363 1362 1361 1360 1359 1358 1357 1356 1355 1354 1354 1353 1352 1352 1351 1350 1350 1349 1348 1347 1346 1344 1342
1415 1415 1414 1414 1413 1413 1412 1412 1412 1412 1412 1412 1412 1412 1412 1412 1411 1411 1411 1411 1411 1410 1409 1408 1407 1406 1405 1404 1402 1401 1400 1400 1401 1400 1399 1397 1396 1394 1393 1391 1391 1391 1390 1388 1387 1386 1384 1382 1381 1379 1377 1373 1371 1371 1371 1371 1369 1368 1367 1366 1365 1363 1362 1361 1360 1359 1357 1356 1355 1354 1353 1353 1352 1351 1351 1350 1349 1348 1348 1347 1346 1345 1344 1343 1342 1341
1413 1412 1412 1411 1411 1411 1411 1410 1410 1410 1410 1410 1410 1410 1410 1410 1410 1410 1409 1409 1408 1407 1406 1406 1405 1404 1403 1402 1401 1399 1398 1398 1398 1398 1396 1395 1394 1393 1391 1390 1389 1389 1388 1386 1385 1384 1383 1381 1379 1378 1376 1374 1371 1369 1369 1369 1368 1367 1365 1364 1363 1361 1360 1359 1358 1357 1356 1354 1353 1352 1351 1351 1350 1349 1348 1347 1347 1346 1345 1344 1343 1342 1341 1341 1340 1339
1411 1410 1410 1409 1409 1409 1409 1408 1408 1408 1408 1408 1408 1408 1408 1408 1408 1407 1407 1406 1406 1405 1404 1403 1402 1401 1401 1400 1399 1397 1396 1396 1396 1395 1394 1393 1392 1391 1389 1388 1387 1387 1386 1385 1383 1382 1381 1380 1377 1376 1375 1374 1371 1369 1367 1366 1366 1364 1363 1362 1361 1360 1358 1358 1357 1356 1354 1353 1352 1351 1350 1349 1348 1347 1346 1345 1344 1343 1342 1341 1340 1340 1338 1337 1336 1336
1409 1408 1408 1408 1407 1407 1406 1406 1406 1406 1406 1406 1406 1406 1406 1406 1405 1405 1404 1403 1403 1402 1401 1401 1400 1399 1398 1397 1396 1396 1395 1394 1393 1393 1392 1391 1390 1389 1387 1386 1385 1384 1384 1383 1382 1381 1380 1378 1376 1375 1373 1372 1370 1369 1367 1365 1363 1362 1361 1360 1359 1358 1357 1356 1355 1354 1353 1352 1351 1350 1349 1348 1347 1346 1344 1343 1342 1341 1340 1338 1337 1337 1336 1334 1333 1332
1407 1407 1406 1406 1406 1405 1405 1405 1404 1404 1404 1404 1404 1404 1404 1404 1403 1402 1401 1401 1400 1399 1398 1398 1397 1396 1396 1395 1395 1394 1393 1392 1391 1391 1390 1389 1388 1387 1386 1384 1383 1382 1382 1381 1381 1380 1379 1377 1376 1374 1372 1370 1368 1366 1365 1364 1363 1361 1359 1357 1356 1356 1356 1355 1354 1353 1352 1351 1350 1348 1347 1346 1345 1344 1343 1341 1340 1339 1337 1336 1335 1334 1333 1332 1330 1328
1406 1405 1405 1405 1404 1404 1403 1403 1403 1402 1402 1402 1402 1402 1402 1401 1401 1400 1399 1399 1398 1397 1396 1395 1395 1394 1393 1393 1392 1391 1391 1390 1390 1389 1388 1387 1386 1385 1384 1382 1381 1380 1380 1379 1378 1378 1377 1376 1374 1372 1371 1370 1367 1365 1364 1363 1361 1360 1359 1357 1355 1353 1354 1354 1353 1351 1350 1349 1348 1346 1345 1344 1343 1342 1341 1340 1339 1337 1336 1335 1333 1332 1331 1330 1328 1326
1404 1404 1403 1403 1402 1402 1401 1401 1401 1401 1401 1401 1401 1400 1400 1399 1399 1398 1397 1396 1396 1395 1394 1393 1392 1391 1391 1390 1390 1389 1388 1388 1387 1386 1386 1385 1384 1383 1382 1381 1380 1379 1378 1377 1376 1376 1375 1374 1372 1371 1370 1369 1367 1365 1363 1361 1361 1360 1359 1357 1354 1352 1351 1351 1350 1349 1348 1347 1346 1345 1344 1342 1341 1340 1339 1338 1336 1335 1334 1333 1331 1329 1328 1328 1327 1325
1402 1401 1401 1401 1401 1400 1399 1399 1399 1399 1399 1399 1398 1398 1398 1397 1396 1396 1395 1394 1393 1392 1392 1391 1390 1389 1388 1388 1387 1386 1386 1385 1385 1384 1383 1382 1382 1381 1380 1379 1378 1377 1376 1376 1375 1374 1373 1372 1371 1370 1368 1367 1366 1364 1361 1360 1359 1358 1357 1356 1353 1351 1349 1348 1348 1348 1347 1346 1345 1344 1342 1341 1340 1338 1337 1336 1334 1332 1331 1330 1329 1328 1326 1325 1324 1322
1400 1400 1400 1399 1399 1398 1397 1397 1397 1397 1397 1397 1396 1396 1396 1395 1394 1394 1393 1392 1391 1391 1390 1389 1388 1387 1386 1386 1385 1384 1384 1383 1382 1382 1381 1380 1380 1379 1378 1377 1376 1376 1375 1374 1373 1372 1371 1371 1370 1368 1367 1366 1365 1363 1360 1358 1356 1356 1356 1355 1353 1351 1348 1346 1346 1346 1346 1345 1343 1342 1341 1340 1338 1336 1334 1333 1331 1330 1329 1328 1326 1326 1324 1323 1321 1320
1398 1397 1397 1397 1396 1396 1396 1396 1396 1396 1395 1395 1395 1394 1393 1393 1392 1391 1391 1390 1389 1389 1388 1387 1386 1385 1384 1383 1383 1382 1382 1381 1380 1380 1379 1378 1377 1377 1376 1376 1375 1374 1373 1373 1371 1371 1370 1369 1367 1367 1366 1365 1364 1362 1359 1357 1356 1354 1353 1353 1352 1351 1348 1346 1344 1344 1343 1342 1341 1340 1339 1337 1336 1334 1332 1330 1329 1327 1326 1325 1324 1322 1321 1320 1319 1317
1396 1395 1395 1395 1395 1395 1395 1394 1394 1394 1393 1393 1392 1392 1391 1391 1390 1390 1389 1388 1387 1386 1386 1385 1384 1383 1382 1381 1381 1380 1380 1379 1378 1378 1377 1376 1376 1375 1374 1374 1373 1372 1371 1371 1370 1369 1368 1367 1366 1365 1364 1363 1362 1360 1358 1356 1354 1353 1351 1351 1350 1349 1347 1345 1344 1343 1341 1340 1339 1337 1336 1335 1334 1332 1330 1327 1326 1325 1323 1322 1321 1319 1317 1316 1315 1314
1394 1393 1393 1393 1393 1393 1393 1392 1392 1392 1391 1391 1391 1390 1389 1389 1388 1387 1387 1386 1385 1385 1384 1383 1383 1382 1381 1380 1379 1378 1378 1377 1376 1376 1376 1375 1374 1373 1373 1372 1371 1371 1370 1369 1368 1367 1366 1366 1364 1363 1362 1361 1359 1357 1356 1355 1353 1351 1349 1348 1348 1346 1345 1343 1342 1341 1340 1338 1336 1335 1334 1333 1332 1330 1327 1325 1323 1322 1320 1319 1318 1316 1315 1313 1312 1310
1392 1392 1392 1392 1392 1391 1391 1391 1390 1390 1389 1389 1388 1388 1387 1386 1386 1385 1385 1384 1383 1383 1382 1381 1381 1380 1379 1378 1377 1376 1376 1375 1374 1374 1373 1373 1372 1372 1371 1371 1370 1369 1368 1367 1366 1365 1364 1363 1362 1361 1361 1359 1357 1354 1353 1352 1351 1350 1348 1347 1346 1344 1342 1341 1340 1339 1338 1336 1335 1333 1332 1331 1330 1328 1325 1323 1321 1318 1317 1316 1314 1313 1312 1310 1308 1307
1390 1390 1390 1390 1390 1389 1389 1389 1388 1388 1387 1387 1386 1386 1385 1384 1384 1383 1383 1382 1381 1381 1381 1380 1379 1378 1377 1376 1376 1375 1374 1373 1372 1372 1371 1371 1370 1370 1370 1369 1368 1368 1367 1366 1365 1364 1362 1361 1360 1359 1358 1357 1355 1352 1350 1350 1349 1348 1346 1345 1344 1342 1341 1338 1337 1337 1336 1335 1333 1332 1331 1330 1328 1326 1323 1320 1317 1315 1313 1311 1311 1309 1308 1307 1305 1303
1389 1388 1388 1388 1387 1387 1387 1387 1387 1386 1386 1385 1384 1383 1383 1382 1382 1381 1381 1380 1380 1379 1379 1378 1377 1376 1376 1375 1374 1373 1373 1372 1371 1370 1370 1369 1369 1368 1368 1367 1367 1366 1365 1364 1363 1361 1360 1359 1357 1357 1356 1355 1353 1351 1348 1347 1346 1346 1345 1343 1342 1341 1338 1336 1336 1335 1334 1333 1331 1330 1329 1327 1326 1323 1321 1318 1314 1311 1309 1308 1306 1306 1305 1304 1302 1301
1386 1386 1386 1386 1386 1385 1385 1385 1385 1384 1383 1383 1382 1381 1381 1380 1380 1379 1379 1379 1378 1378 1377 1376 1376 1375 1374 1373 1372 1372 1371 1370 1369 1369 1368 1368 1367 1367 1366 1366 1365 1364 1363 1362 1361 1360 1358 1357 1355 1354 1353 1353 1352 1350 1347 1346 1344 1344 1343 1342 1341 1339 1337 1335 1334 1333 1332 1331 1329 1327 1326 1324 1322 1321 1319 1316 1312 1308 1306 1304 1303 1302 1301 1301 1299 1297
1384 1384 1384 1384 1383 1383 1383 1383 1382 1382 1381 1381 1380 1379 1379 1378 1378 1377 1377 1377 1376 1376 1375 1375 1374 1373 1372 1371 1371 1370 1370 1369 1368 1367 1367 1366 1366 1366 1365 1364 1363 1363 1362 1361 1359 1358 1357 1356 1354 1352 1351 1351 1351 1350 1348 1346 1344 1343 1341 1340 1339 1338 1336 1334 1332 1330 1329 1328 1326 1324 1323 1321 1319 1318 1316 1314 1310 1306 1303 1301 1299 1298 1298 1297 1296 1294